Wind_Speed
25 25 26 26 26 25 23 22 22 22 22 23 22 22 21 21 21 21 20 20 20 20 19 19 19 19 18 18 18 18 18 18 19 19 19 19 19 19 19 19 19 19 19 19 19 19 18 18 18
27 27 27 27 27 25 23 22 23 23 24 24 23 23 23 22 22 21 21 21 21 21 20 20 20 20 20 20 20 20 20 20 20 21 21 21 21 21 21 21 21 21 21 21 21 21 21 20 20
28 28 28 28 27 25 24 24 24 25 25 25 25 25 24 23 23 23 22 22 22 22 22 22 22 22 21 21 21 22 22 22 23 23 23 23 24 24 24 24 24 24 24 24 24 23 23 23 22
29 29 30 29 27 26 26 26 26 25 25 25 26 26 25 25 25 24 24 24 23 23 23 23 23 23 23 23 23 23 24 24 25 25 25 26 26 26 26 26 26 26 26 26 26 26 26 25 25
29 30 30 29 28 27 27 28 27 27 26 26 27 27 26 26 26 26 26 26 25 25 25 24 25 25 25 25 25 25 25 26 26 27 27 27 28 28 28 28 28 28 29 29 28 28 28 28 27
29 30 30 29 28 28 28 29 29 29 29 28 28 28 27 27 27 27 27 27 27 26 26 26 26 26 26 26 27 27 27 28 29 29 30 30 30 30 31 31 31 31 31 31 31 31 30 30 30
27 29 29 28 28 29 29 30 30 31 31 31 30 30 29 29 29 29 29 28 28 28 28 27 27 28 28 28 29 29 30 30 30 31 31 31 32 32 32 32 33 33 33 33 33 33 33 33 32
28 28 28 27 28 28 29 30 31 31 31 31 31 31 30 30 30 30 30 30 29 29 29 29 29 29 29 30 30 31 31 31 32 32 32 32 32 33 33 34 34 35 35 35 35 35 36 36 35
27 27 26 26 28 29 30 31 31 31 31 31 31 31 31 31 31 31 31 30 30 30 30 30 30 31 31 31 31 31 32 32 32 32 32 33 33 34 34 35 35 36 37 37 37 38 38 38 38
26 25 25 27 28 29 30 30 30 30 30 30 31 31 32 32 31 31 31 31 31 31 31 31 31 31 31 32 32 32 32 33 33 33 34 34 35 35 36 36 37 37 38 39 39 39 40 40 41
24 24 25 26 27 28 28 29 29 29 29 29 30 31 31 31 31 31 31 31 31 31 31 31 31 31 31 32 32 32 33 33 34 35 35 36 37 37 38 38 39 39 40 41 41 41 42 43 43
24 24 25 25 26 26 26 27 27 27 27 28 29 29 29 29 30 30 30 30 30 30 30 30 30 30 31 31 32 32 33 34 35 36 37 38 38 39 40 40 41 41 42 43 43 44 44 45 45
25 25 25 25 25 25 26 26 26 25 26 27 27 27 28 28 29 29 29 29 29 29 29 29 30 30 31 32 33 33 34 35 35 36 37 38 40 41 42 43 43 44 44 45 46 46 47 47 48
26 26 25 25 25 26 26 26 26 24 26 26 26 26 27 27 28 28 28 28 28 29 29 29 30 30 31 32 33 34 35 35 36 38 39 40 41 42 43 44 45 46 47 48 48 49 50 51 51
28 27 26 26 26 26 26 26 25 26 27 26 26 26 27 27 27 27 28 28 28 29 29 29 30 31 32 33 34 35 36 37 38 39 40 42 43 43 45 46 46 48 49 50 50 51 52 53 54
29 28 27 26 26 26 27 25 26 26 27 26 26 27 27 27 27 27 28 28 29 29 30 30 31 32 33 34 35 36 37 39 40 41 42 44 45 45 46 47 48 49 50 52 52 53 54 55 55
29 28 27 27 27 27 27 26 26 26 27 27 27 27 27 27 27 28 28 28 29 29 30 31 32 33 34 35 36 37 39 40 41 43 44 45 45 46 48 48 49 50 52 53 54 55 56 56 57
29 29 28 28 28 28 28 27 27 27 27 28 28 28 27 27 28 28 29 29 29 30 31 32 33 34 35 36 37 39 40 42 43 44 46 47 48 49 50 51 52 54 55 56 57 57 58 59 60
31 31 30 29 30 30 29 28 28 28 28 28 29 29 28 28 29 30 30 30 30 30 31 32 33 34 35 36 38 39 41 42 44 45 47 48 49 50 52 53 54 56 57 58 58 58 59 61 62
33 32 31 31 31 31 30 30 29 29 28 29 29 29 29 30 31 30 31 31 31 32 33 34 35 36 37 38 40 41 42 44 45 47 48 50 51 53 54 56 56 57 58 59 60 60 60 60 63
35 34 33 33 33 33 32 31 30 30 30 30 30 30 30 31 31 32 32 32 33 33 34 35 36 37 38 40 41 43 44 45 47 49 50 51 53 54 55 56 57 58 59 59 60 60 60 60 61
36 35 35 35 35 35 35 35 31 32 32 31 31 31 31 31 32 33 33 33 34 35 35 36 37 38 40 41 43 44 46 47 48 50 51 52 53 54 55 56 57 58 59 59 59 59 60 60 61
38 37 37 37 38 38 37 38 33 32 32 32 32 32 32 33 33 34 34 35 35 36 37 38 39 40 41 43 45 46 48 49 50 50 51 53 54 55 56 57 58 58 58 59 59 59 59 59 59
40 39 39 40 40 41 38 39 37 34 33 33 33 34 34 35 35 35 36 37 37 38 38 39 40 42 43 45 47 48 49 50 50 51 52 53 54 55 56 57 57 57 57 58 57 57 57 57 57
41 41 41 42 42 42 39 40 39 36 35 34 34 35 36 36 36 37 37 38 38 39 40 41 42 44 45 47 48 49 50 51 52 53 54 54 55 55 55 56 56 56 57 57 57 56 56 56 56
41 41 41 42 42 42 41 40 39 38 37 36 36 36 37 37 37 38 38 39 40 41 41 43 44 45 47 48 49 50 52 53 54 54 54 55 54 54 54 55 55 55 56 56 56 56 55 55 55
43 43 42 43 43 43 43 41 39 38 38 38 38 38 38 38 38 39 39 40 41 42 43 44 45 47 48 49 51 52 53 54 54 54 54 54 54 54 54 54 55 55 55 54 54 55 55 54 54
45 43 43 44 45 45 44 42 40 39 38 38 38 39 39 39 39 40 40 41 42 43 44 45 46 48 49 50 51 52 53 54 54 54 54 54 54 55 55 56 56 55 54 54 55 55 54 54 53
43 44 45 45 46 46 45 43 41 40 40 40 39 39 40 40 40 41 41 42 43 44 45 46 47 49 50 51 52 52 53 54 54 53 53 54 55 56 57 57 56 54 54 54 55 55 55 54 54
42 42 42 44 46 47 46 45 42 41 41 41 40 40 40 41 42 42 43 43 44 44 45 46 48 49 50 51 51 52 53 54 53 53 53 54 55 56 57 56 55 54 54 54 54 54 54 53 53
Wind_Direction
242 241 240 240 240 241 241 241 241 241 241 242 243 244 244 244 244 245 244 244 244 245 246 248 250 253 255 258 259 261 262 263 265 267 268 269 270 270 271 272 272 271 271 271 272 274 274 275 276
241 241 240 240 241 241 242 242 242 242 242 242 243 244 244 245 246 247 246 245 245 246 246 248 251 253 255 258 261 262 264 265 266 268 269 270 271 272 272 273 273 272 272 271 271 271 272 272 274
241 241 241 241 241 242 242 243 244 244 243 244 245 245 245 246 247 248 249 249 248 248 248 250 252 255 257 259 262 264 265 266 267 268 269 270 271 272 273 273 273 272 272 271 270 270 271 271 272
242 242 242 243 243 243 244 244 245 245 245 245 246 246 246 247 248 249 250 251 251 251 252 253 255 257 260 262 264 265 267 268 269 270 270 271 271 272 272 272 273 273 272 271 271 270 270 270 271
243 243 244 245 244 244 244 244 245 246 246 246 247 248 248 249 249 250 250 252 253 254 255 256 258 260 262 263 265 266 267 269 270 270 271 272 272 272 272 272 272 272 273 272 271 271 270 270 269
244 245 245 245 244 243 244 244 245 246 247 247 248 249 249 250 250 251 252 253 254 256 257 258 260 261 263 265 266 267 268 269 270 270 271 271 272 273 273 272 272 271 271 271 271 270 270 270 269
245 245 245 245 244 244 244 245 245 246 247 248 249 249 249 250 251 253 254 255 256 257 258 260 261 262 263 265 267 267 268 269 270 271 270 271 271 272 272 272 271 271 271 271 270 270 269 268 269
247 246 246 245 245 244 244 245 246 247 248 249 249 249 250 251 252 253 254 255 256 257 258 260 261 262 264 266 267 268 269 270 270 271 271 271 272 272 272 271 271 271 270 270 270 269 269 269 268
248 247 247 246 246 245 245 246 246 247 248 248 249 250 250 251 252 253 254 255 256 258 259 261 262 264 266 267 268 269 270 271 271 271 271 271 272 272 272 272 272 272 271 270 270 269 269 269 268
248 249 248 248 247 247 247 247 247 247 248 248 249 250 250 250 251 252 253 255 257 259 261 262 263 265 266 267 268 269 270 271 271 272 272 272 273 274 273 273 273 272 272 271 270 270 269 269 268
249 248 247 248 248 247 247 246 246 247 247 248 249 250 250 250 251 253 254 255 257 259 260 262 264 266 268 269 269 270 271 272 273 273 274 274 274 274 274 274 274 274 273 272 271 270 270 269 269
249 248 247 247 247 247 246 246 246 246 247 248 248 249 250 251 251 252 254 255 256 258 261 263 265 267 269 270 270 271 273 273 274 275 275 276 276 276 276 276 276 276 274 273 272 271 270 270 270
248 248 248 248 247 247 246 246 245 245 246 247 248 249 250 251 252 253 254 255 257 259 260 263 265 267 269 270 271 272 273 275 276 277 277 277 277 277 277 276 276 276 275 274 273 272 271 271 270
247 248 248 248 248 247 246 245 245 244 246 247 247 248 249 251 252 253 254 256 258 260 262 264 266 268 270 271 272 273 275 275 277 278 278 278 279 278 278 277 276 276 275 275 274 272 271 270 270
247 248 248 248 247 246 246 245 245 244 246 247 247 248 249 251 252 253 255 257 259 261 263 266 268 270 272 273 275 276 276 277 279 279 280 280 280 279 278 278 277 276 275 275 275 274 272 271 271
247 247 248 248 248 246 247 246 246 246 247 247 247 248 250 252 253 254 256 258 260 262 265 267 269 271 273 274 275 276 278 279 280 281 282 282 281 280 280 279 278 277 277 276 276 274 272 271 271
247 248 247 247 247 247 247 246 245 246 247 248 248 248 250 253 255 256 258 260 262 264 267 269 271 273 275 276 277 278 279 281 282 283 283 283 282 281 281 281 280 279 278 278 277 275 273 271 271
247 248 247 246 246 246 246 246 246 246 247 248 249 250 252 255 257 259 261 264 266 267 269 271 273 275 277 278 279 280 281 283 283 284 284 284 283 283 283 282 281 280 280 279 278 276 274 272 271
246 247 246 246 246 247 247 247 248 248 249 250 251 252 254 257 259 261 264 266 268 269 271 273 275 277 278 279 280 282 283 284 285 285 286 285 285 286 286 285 284 283 282 281 279 278 276 274 272
246 246 247 247 248 249 249 249 250 251 252 253 253 254 256 258 260 263 265 267 269 271 272 274 276 278 279 280 281 283 284 285 285 286 287 287 287 287 287 287 287 285 284 282 281 279 277 275 274
246 247 248 248 249 250 250 249 250 253 254 254 254 255 257 260 262 264 266 267 269 271 273 275 277 279 280 282 283 284 286 286 287 287 288 288 289 288 288 288 288 287 286 284 282 281 279 277 276
247 247 248 249 250 250 252 253 250 253 254 255 255 256 258 261 262 264 266 268 270 272 274 277 278 280 282 283 285 286 287 288 288 288 289 290 290 290 290 290 289 288 287 286 284 282 280 280 278
247 247 249 250 251 252 252 255 252 253 254 255 256 257 259 261 263 265 267 269 271 273 275 278 280 282 283 285 286 288 289 289 289 289 290 291 291 292 292 292 291 290 289 287 285 282 281 280 280
247 248 249 251 252 252 253 257 256 254 254 255 257 259 260 262 264 266 268 271 273 275 277 279 281 283 285 286 288 289 290 290 290 291 292 292 292 292 292 293 292 290 289 288 286 284 282 281 280
248 249 250 251 252 254 255 257 258 257 256 257 258 260 261 264 265 267 269 271 273 275 277 279 282 284 286 287 289 290 291 291 291 291 292 292 292 292 292 292 291 290 290 288 287 285 282 281 279
247 248 250 253 255 256 256 257 258 258 258 259 260 261 263 265 267 269 271 272 274 276 279 281 283 285 287 288 289 290 291 291 292 292 293 293 292 292 293 292 291 291 290 288 287 285 283 281 279
246 247 249 252 254 256 256 256 257 259 260 261 262 263 264 266 267 269 271 273 275 277 280 282 284 286 287 289 289 290 291 291 292 293 293 294 294 293 293 292 292 292 290 289 289 287 284 281 279
246 247 248 250 253 254 256 257 259 260 262 264 264 265 266 266 268 269 271 273 276 278 280 282 284 286 288 289 290 290 291 292 292 293 293 294 294 294 293 293 293 292 291 290 290 288 285 282 280
245 246 248 251 253 255 256 258 261 262 263 265 266 267 267 268 269 271 273 275 277 279 281 283 285 286 288 288 289 290 291 292 293 293 293 294 294 294 294 294 293 293 292 291 290 289 286 283 280
245 247 248 251 253 255 257 258 260 263 264 265 266 267 268 269 270 272 274 276 278 280 282 283 285 286 287 288 289 291 292 293 293 293 294 294 295 295 295 295 294 294 293 292 292 290 287 284 281
Height
5799 5801 5803 5805 5807 5809 5811 5813 5814 5816 5818 5819 5820 5822 5824 5826 5828 5831 5831 5831 5831 5833 5834 5835 5836 5837 5838 5839 5840 5841 5842 5843 5844 5844 5845 5846 5846 5847 5848 5848 5849 5849 5850 5851 5851 5852 5852 5853 5853
5795 5797 5799 5801 5802 5805 5808 5809 5811 5812 5814 5815 5817 5818 5820 5822 5823 5825 5826 5827 5828 5829 5831 5832 5833 5834 5835 5836 5837 5838 5839 5839 5840 5841 5842 5842 5843 5844 5844 5845 5845 5846 5847 5847 5848 5848 5849 5849 5850
5790 5792 5795 5796 5798 5802 5804 5805 5806 5808 5810 5811 5813 5814 5816 5818 5819 5821 5822 5823 5825 5826 5827 5828 5829 5830 5831 5832 5833 5834 5835 5836 5836 5837 5838 5838 5839 5840 5840 5841 5841 5842 5842 5843 5844 5844 5845 5845 5846
5786 5788 5790 5793 5795 5798 5799 5801 5802 5804 5806 5807 5809 5811 5813 5814 5816 5817 5818 5819 5821 5822 5823 5824 5825 5826 5827 5828 5829 5830 5831 5831 5832 5833 5833 5834 5834 5835 5835 5836 5837 5837 5838 5838 5839 5840 5840 5841 5841
5781 5783 5785 5788 5790 5793 5794 5796 5797 5799 5801 5803 5804 5806 5808 5810 5811 5812 5814 5815 5816 5818 5819 5820 5821 5822 5823 5824 5825 5826 5826 5827 5827 5828 5828 5829 5829 5830 5830 5831 5831 5832 5832 5833 5833 5834 5835 5836 5836
5776 5778 5781 5783 5785 5787 5789 5790 5792 5794 5796 5798 5800 5802 5804 5805 5806 5808 5809 5810 5812 5813 5814 5815 5817 5817 5818 5819 5820 5821 5821 5822 5822 5823 5823 5823 5824 5824 5825 5825 5826 5826 5826 5827 5828 5828 5829 5830 5830
5772 5773 5775 5778 5780 5782 5784 5785 5787 5789 5791 5793 5795 5797 5798 5800 5802 5803 5804 5806 5807 5808 5809 5810 5811 5812 5813 5814 5815 5815 5816 5816 5817 5817 5817 5818 5818 5818 5818 5819 5819 5820 5820 5820 5821 5822 5822 5823 5824
5766 5768 5770 5772 5774 5777 5778 5779 5781 5783 5785 5787 5789 5791 5793 5795 5796 5797 5799 5800 5802 5803 5804 5805 5806 5807 5808 5808 5809 5809 5810 5810 5811 5811 5811 5811 5811 5811 5812 5812 5812 5813 5813 5813 5814 5815 5815 5816 5817
5760 5764 5765 5767 5769 5771 5772 5774 5776 5777 5779 5781 5783 5785 5787 5789 5790 5792 5793 5795 5796 5797 5798 5799 5800 5801 5802 5802 5803 5803 5803 5804 5804 5804 5804 5805 5805 5805 5805 5805 5805 5805 5806 5806 5807 5807 5808 5809 5809
5755 5758 5760 5762 5763 5765 5766 5768 5770 5772 5774 5776 5777 5779 5780 5782 5784 5786 5787 5789 5790 5792 5793 5794 5794 5795 5796 5796 5796 5797 5797 5797 5797 5797 5798 5798 5798 5797 5797 5797 5797 5797 5798 5798 5799 5799 5800 5800 5801
5750 5753 5754 5755 5757 5758 5760 5762 5764 5766 5768 5770 5771 5773 5774 5776 5778 5780 5781 5783 5784 5785 5787 5788 5788 5789 5789 5789 5790 5790 5790 5790 5790 5790 5790 5790 5790 5790 5789 5789 5789 5789 5789 5790 5790 5790 5791 5791 5792
5746 5747 5748 5750 5751 5753 5755 5756 5758 5761 5763 5764 5765 5767 5769 5771 5772 5774 5775 5777 5778 5779 5780 5781 5782 5782 5783 5783 5783 5783 5783 5783 5783 5783 5782 5782 5782 5781 5781 5781 5781 5780 5780 5780 5781 5781 5781 5782 5782
5740 5742 5743 5744 5746 5747 5749 5751 5753 5755 5757 5758 5759 5761 5763 5765 5766 5767 5769 5771 5772 5773 5774 5775 5776 5776 5776 5776 5776 5776 5776 5776 5775 5775 5774 5774 5773 5773 5772 5772 5771 5771 5771 5771 5771 5771 5771 5771 5772
5735 5736 5737 5739 5740 5742 5744 5745 5747 5750 5750 5752 5754 5756 5757 5759 5760 5762 5763 5765 5766 5767 5768 5768 5769 5769 5769 5769 5769 5769 5769 5768 5767 5767 5766 5765 5764 5763 5762 5762 5761 5761 5760 5760 5760 5760 5760 5760 5761
5728 5730 5732 5733 5734 5736 5738 5740 5742 5744 5744 5746 5748 5750 5751 5753 5754 5756 5757 5759 5760 5761 5761 5762 5762 5762 5762 5762 5762 5761 5761 5760 5759 5758 5757 5756 5754 5753 5752 5751 5751 5750 5749 5749 5748 5748 5748 5748 5749
5722 5724 5726 5728 5729 5730 5733 5735 5737 5737 5738 5740 5742 5744 5745 5747 5748 5750 5751 5752 5753 5754 5754 5755 5755 5755 5755 5754 5754 5753 5752 5751 5750 5749 5747 5746 5744 5743 5742 5741 5739 5738 5737 5736 5736 5735 5735 5735 5735
5716 5718 5720 5722 5723 5724 5725 5728 5730 5731 5732 5734 5736 5738 5739 5741 5742 5743 5744 5745 5746 5747 5747 5747 5747 5747 5747 5746 5745 5745 5743 5742 5740 5739 5737 5735 5733 5731 5730 5729 5727 5726 5724 5723 5722 5721 5720 5721 5720
5710 5711 5713 5715 5716 5717 5719 5721 5723 5725 5726 5728 5729 5731 5733 5735 5736 5737 5738 5739 5739 5740 5740 5740 5739 5739 5739 5738 5737 5736 5734 5733 5730 5728 5726 5724 5722 5720 5718 5716 5714 5712 5710 5709 5707 5706 5705 5704 5704
5702 5704 5706 5708 5708 5710 5712 5714 5716 5718 5720 5722 5723 5725 5727 5728 5729 5730 5731 5732 5732 5732 5732 5732 5732 5731 5730 5729 5728 5726 5725 5723 5720 5718 5715 5712 5710 5707 5705 5703 5700 5698 5696 5694 5691 5689 5688 5688 5686
5694 5696 5699 5700 5701 5703 5705 5708 5710 5711 5713 5715 5716 5718 5720 5721 5722 5723 5724 5724 5724 5725 5724 5724 5723 5723 5721 5720 5718 5717 5715 5712 5710 5707 5704 5700 5697 5694 5691 5688 5685 5683 5680 5678 5675 5672 5671 5671 5668
5687 5689 5692 5693 5694 5695 5698 5701 5703 5705 5706 5708 5709 5711 5712 5714 5715 5715 5716 5717 5717 5717 5716 5716 5715 5713 5712 5710 5708 5706 5704 5702 5699 5695 5692 5688 5684 5681 5677 5674 5670 5667 5664 5661 5658 5655 5654 5653 5651
5679 5681 5683 5685 5686 5688 5690 5692 5697 5697 5699 5700 5702 5704 5705 5706 5707 5708 5708 5708 5708 5708 5708 5707 5706 5704 5702 5700 5698 5696 5693 5690 5687 5683 5680 5676 5671 5667 5663 5660 5656 5652 5648 5645 5642 5639 5636 5634 5633
5670 5673 5675 5676 5677 5679 5682 5683 5689 5690 5692 5693 5695 5696 5697 5698 5699 5699 5700 5700 5700 5699 5699 5698 5696 5694 5693 5690 5688 5685 5682 5678 5675 5671 5667 5663 5659 5654 5650 5645 5641 5637 5633 5629 5626 5623 5620 5617 5615
5661 5663 5665 5666 5668 5670 5675 5675 5679 5683 5685 5686 5687 5688 5689 5690 5690 5691 5691 5691 5690 5690 5689 5688 5686 5684 5682 5679 5676 5673 5670 5666 5662 5658 5654 5650 5646 5641 5636 5631 5626 5622 5618 5614 5610 5607 5604 5601 5599
5652 5655 5656 5657 5658 5662 5666 5667 5671 5674 5676 5678 5679 5680 5680 5681 5681 5682 5682 5682 5681 5680 5679 5678 5676 5674 5671 5668 5665 5661 5657 5653 5649 5645 5641 5637 5632 5627 5622 5617 5612 5607 5603 5599 5595 5591 5588 5586 5583
5642 5645 5648 5649 5651 5653 5656 5658 5663 5665 5667 5668 5670 5671 5671 5672 5672 5672 5672 5672 5671 5670 5668 5667 5665 5662 5659 5656 5653 5649 5645 5640 5636 5632 5627 5623 5618 5613 5608 5603 5598 5593 5588 5583 5579 5576 5573 5570 5568
5631 5634 5638 5639 5640 5643 5645 5649 5653 5655 5657 5659 5660 5661 5662 5662 5662 5662 5662 5661 5660 5659 5658 5656 5654 5651 5647 5644 5640 5636 5632 5628 5623 5619 5614 5609 5604 5599 5594 5589 5584 5579 5574 5569 5564 5560 5557 5554 5552
5622 5625 5627 5629 5630 5632 5636 5640 5644 5646 5648 5649 5650 5651 5651 5652 5652 5652 5652 5651 5650 5648 5647 5645 5642 5639 5635 5632 5628 5623 5619 5615 5610 5605 5600 5595 5590 5585 5580 5575 5570 5564 5559 5554 5550 5545 5542 5539 5537
5612 5615 5617 5619 5620 5623 5626 5633 5634 5636 5637 5639 5640 5640 5641 5641 5641 5641 5641 5640 5639 5637 5635 5633 5630 5627 5623 5619 5615 5611 5606 5602 5597 5591 5587 5582 5577 5571 5566 5561 5555 5550 5545 5540 5535 5531 5527 5524 5522
5600 5604 5607 5610 5611 5613 5616 5624 5624 5626 5626 5627 5628 5629 5629 5630 5630 5630 5629 5629 5627 5626 5624 5621 5618 5615 5611 5607 5603 5598 5593 5588 5583 5578 5573 5568 5563 5557 5551 5546 5541 5535 5530 5525 5520 5516 5512 5509 5507